Temp
20 20 20 19 19 18 17 18 18 18 17 18 19 18 18 18 19 19 19 19 18 18 18 18 17 16 15 15 16 17 17 17 17 17 17 17 16 16 16 16 16 16 16 16 16 16 16 16 15 15 15 14 14 15 14 14 14 14 14 14 14 14
19 20 20 19 19 18 18 18 18 17 16 17 18 18 18 19 19 19 19 19 18 18 18 18 18 18 16 15 16 17 17 17 17 17 17 16 16 16 16 16 16 16 16 16 16 15 15 15 15 15 14 14 14 14 14 14 14 14 14 14 13 13
19 19 19 19 19 19 18 19 18 17 16 16 18 18 19 19 19 19 19 19 19 18 18 18 18 18 17 16 17 17 17 17 17 17 16 16 16 16 16 16 16 16 16 16 16 15 15 15 15 14 14 14 14 14 14 14 14 13 14 13 13 13
19 19 19 19 19 19 19 19 18 17 16 17 18 19 19 19 19 19 19 19 19 18 18 18 18 18 18 17 17 17 17 17 17 17 17 16 16 16 16 16 16 16 16 16 15 15 15 15 14 14 14 14 14 14 14 14 14 14 13 13 13 13
18 19 19 19 19 19 19 19 19 18 17 18 18 18 18 19 19 19 19 19 19 18 18 18 18 18 18 18 17 17 17 17 17 17 17 16 16 16 16 16 16 16 16 16 15 15 15 14 14 14 14 14 14 14 14 14 14 14 13 13 13 13
18 19 19 19 19 19 19 19 19 19 18 18 18 18 18 19 19 19 19 19 19 19 18 18 18 18 18 18 17 17 17 17 17 17 16 16 16 16 16 16 16 16 16 15 15 15 14 14 14 14 14 14 14 14 14 14 14 14 13 13 13 13
18 19 19 19 19 19 19 19 19 19 19 18 19 18 19 19 19 19 19 19 19 19 18 18 18 18 18 17 17 17 17 17 17 17 16 16 16 16 16 16 16 16 16 15 15 15 14 14 14 14 14 14 14 14 14 14 14 13 13 13 13 13
18 18 18 18 19 18 19 19 19 19 18 18 19 19 19 19 19 19 19 19 19 19 18 18 18 18 18 17 17 17 17 17 17 17 16 16 16 16 16 16 15 15 15 15 15 14 14 14 14 14 14 14 14 14 14 13 13 13 13 13 12 12
18 18 18 18 18 18 18 19 19 19 18 19 19 19 19 19 19 19 19 19 19 18 18 18 18 18 17 17 17 17 17 17 17 16 16 16 16 16 15 15 15 15 15 14 14 14 14 14 14 14 14 14 14 14 13 13 13 13 13 12 12 12
18 18 18 18 18 18 18 19 19 19 19 19 19 19 19 19 19 19 19 19 18 18 18 18 17 17 17 17 16 16 16 16 16 16 16 16 16 15 15 14 15 14 14 14 14 14 14 14 14 14 14 14 14 13 13 13 13 13 12 12 12 12
18 18 18 18 18 18 18 18 19 19 19 19 19 19 19 19 19 19 19 19 18 18 17 17 17 17 16 16 16 16 16 16 16 16 16 15 15 15 14 14 14 14 14 14 14 14 14 14 14 14 14 14 13 13 13 13 13 12 12 12 12 12
18 18 18 18 18 18 18 18 18 19 19 19 18 18 19 19 19 19 19 18 18 17 17 17 17 16 16 16 16 16 15 16 16 16 15 15 14 14 14 14 14 14 14 14 14 14 14 14 14 14 14 14 13 13 13 13 12 12 12 12 12 12
18 18 18 18 18 18 18 18 18 18 18 18 18 18 19 19 19 19 19 18 18 17 17 17 16 16 16 16 16 15 15 15 15 15 15 14 14 14 14 14 14 14 14 14 14 14 14 14 14 14 14 13 13 13 12 12 12 12 12 12 11 12
19 18 18 17 17 17 18 18 18 18 18 18 18 19 19 19 19 19 19 18 18 17 16 16 16 16 15 15 15 15 15 15 15 15 15 14 14 14 14 14 14 14 14 14 14 14 14 14 14 14 14 13 13 12 12 12 12 12 11 11 11 12
19 18 18 17 17 17 17 18 18 18 18 18 18 18 19 19 19 19 19 18 18 17 16 16 16 16 15 15 15 15 15 15 15 15 14 14 14 14 14 14 14 14 14 14 14 14 14 14 14 14 13 13 12 12 12 12 12 12 11 11 11 12
19 18 18 17 16 17 17 17 18 18 18 18 18 18 19 19 19 19 18 18 17 17 16 16 16 15 15 15 15 15 15 15 15 15 14 14 14 14 14 14 14 14 14 14 14 14 14 14 14 13 13 12 12 12 12 12 12 11 11 11 11 12
19 18 17 17 16 16 17 17 17 17 17 18 18 18 18 18 18 18 18 18 17 17 16 16 16 15 15 15 15 15 15 15 15 15 15 14 14 14 14 14 14 14 14 14 14 14 14 14 13 13 13 12 12 12 12 12 11 11 11 11 11 12
19 18 17 17 17 16 16 16 17 17 17 17 18 18 18 18 18 18 18 17 17 16 16 16 15 15 15 15 15 15 15 15 15 15 15 14 14 14 14 14 14 14 14 14 14 14 14 14 13 13 13 12 12 12 12 11 11 11 11 11 11 11
19 18 17 17 17 16 16 16 16 16 17 17 18 17 17 18 18 18 18 17 17 16 16 16 15 15 15 15 15 15 15 15 15 15 15 15 14 14 14 14 14 14 14 14 14 14 14 14 13 13 13 12 12 11 11 11 11 11 11 11 11 11
19 18 17 17 16 16 16 16 16 16 17 17 18 17 17 18 18 18 17 17 17 16 16 16 15 15 15 15 15 15 15 15 15 15 15 15 14 14 14 14 14 14 14 14 14 13 13 13 13 13 12 12 12 11 11 11 11 11 11 11 10 11
19 18 18 17 16 16 16 16 16 16 17 17 17 17 17 17 18 17 17 16 16 16 15 15 15 15 15 15 15 15 15 15 15 15 15 15 14 14 14 14 14 14 14 14 14 13 13 13 13 13 12 11 11 11 11 11 11 10 10 10 10 10
19 18 18 17 17 16 16 16 16 16 17 17 17 17 17 17 17 17 16 16 15 15 15 15 15 15 15 15 15 15 15 15 15 15 15 15 14 14 14 14 14 14 14 14 13 13 13 13 13 13 12 12 11 11 11 11 10 10 10 10 10 10
19 18 18 17 17 16 16 16 16 16 17 17 17 17 17 17 17 16 16 15 15 15 15 15 15 15 15 15 15 15 15 15 15 15 15 15 14 14 14 14 14 14 14 14 13 13 13 13 13 13 12 12 11 11 10 10 10 10 10 10 10 10
20 19 18 17 17 17 16 16 16 16 16 16 16 16 16 16 16 15 15 15 15 15 15 15 15 15 15 15 15 15 15 15 14 14 15 15 14 14 14 14 14 14 14 14 13 13 13 13 13 13 12 11 11 10 10 10 10 10 10 10 10 10
20 19 18 18 17 17 16 16 16 15 15 15 16 16 15 16 15 15 15 15 15 15 15 15 15 15 15 15 15 15 15 14 14 14 14 14 14 14 14 14 14 13 13 13 13 13 13 13 13 12 12 12 11 11 11 11 11 10 10 10 10 10
21 20 19 18 17 16 16 16 16 16 15 15 15 15 16 16 16 16 16 16 16 15 15 15 15 15 15 15 15 15 14 14 14 14 14 14 14 14 14 14 14 13 13 13 13 13 13 13 12 12 12 12 12 12 12 12 11 10 10 10 10 10
21 20 19 18 17 17 16 16 16 16 16 16 16 16 16 16 17 17 16 16 16 16 15 15 15 15 15 15 14 14 14 14 14 14 14 14 14 14 14 14 13 13 13 13 13 13 13 13 12 12 12 12 12 12 12 12 11 11 10 10 10 10
21 21 20 19 18 17 16 16 16 16 16 16 16 16 16 16 16 16 16 17 16 16 15 15 15 15 15 14 14 14 14 14 14 14 14 14 14 14 14 13 13 13 13 13 13 13 13 12 12 12 12 12 12 12 12 12 11 11 11 11 11 10
21 21 20 19 18 18 17 16 16 16 15 15 15 15 16 16 16 16 16 16 16 16 16 15 15 15 15 14 14 14 14 14 14 14 14 14 14 14 13 13 13 13 13 13 13 13 13 12 12 12 12 12 12 12 11 11 11 11 11 11 11 11
21 21 20 19 19 18 17 17 17 16 16 15 15 15 15 15 15 16 16 16 16 16 16 15 15 15 15 15 14 14 14 14 14 14 14 14 14 13 13 13 13 13 13 13 13 12 12 12 12 12 12 12 12 12 11 11 11 11 11 11 11 11
21 22 21 20 19 19 18 17 17 17 16 16 15 15 15 15 15 15 16 16 16 16 16 15 15 15 15 15 14 14 14 14 14 14 14 14 14 13 13 13 13 13 12 12 12 12 12 12 12 12 11 11 11 11 11 11 11 11 11 11 11 11
21 22 21 20 20 19 18 18 17 17 17 16 16 15 15 15 15 15 16 16 16 16 16 16 15 15 15 15 14 14 14 14 14 14 14 14 13 13 13 12 13 13 13 12 12 12 12 12 12 11 11 11 11 11 11 11 11 11 11 10 11 11
21 22 22 21 20 19 19 18 18 17 17 17 16 15 15 15 15 15 15 16 16 16 16 16 16 15 15 15 15 14 14 14 14 14 14 14 13 13 13 12 13 13 12 12 12 12 11 11 11 11 11 11 11 11 11 11 11 10 10 10 10 10
20 21 22 21 20 20 19 18 18 18 17 17 17 16 16 15 15 15 15 16 16 16 17 17 16 16 15 15 15 15 14 14 14 14 14 13 13 13 13 12 12 13 12 12 12 12 11 11 11 11 11 11 11 11 11 11 10 10 10 10 10 10
20 21 21 22 21 20 19 18 18 18 18 18 17 16 16 15 15 15 15 16 16 16 17 17 16 16 15 15 15 14 14 14 14 14 14 13 13 13 13 12 12 12 12 12 12 12 11 11 11 11 11 10 10 10 10 10 10 10 10 10 10 10
21 21 21 22 21 20 19 19 18 18 18 18 17 17 16 16 16 15 15 16 16 16 16 16 16 16 15 15 14 14 14 14 14 13 13 13 13 12 12 12 12 12 13 12 12 12 11 11 11 11 11 11 10 11 11 10 10 10 11 11 10 10
20 20 21 21 21 19 19 19 18 19 19 18 18 17 17 16 16 16 16 15 15 16 16 16 16 15 15 14 14 14 14 14 13 13 13 13 12 12 12 12 13 13 13 13 12 12 12 11 11 11 11 11 11 11 11 11 11 11 11 11 11 10
Height
1546 1547 1549 1550 1552 1553 1554 1556 1557 1558 1559 1560 1561 1562 1563 1565 1565 1566 1567 1568 1569 1570 1570 1571 1572 1573 1574 1575 1576 1577 1579 1580 1581 1582 1583 1584 1585 1586 1586 1587 1587 1587 1587 1588 1589 1590 1590 1591 1591 1591 1591 1591 1591 1591 1591 1591 1591 1591 1591 1591 1591 1591
1545 1546 1548 1549 1551 1552 1553 1555 1556 1558 1559 1560 1561 1562 1563 1564 1565 1566 1567 1568 1569 1570 1570 1571 1572 1573 1574 1575 1576 1578 1579 1580 1581 1582 1583 1584 1585 1585 1586 1587 1587 1587 1588 1588 1589 1590 1590 1590 1591 1591 1591 1591 1591 1591 1591 1591 1591 1592 1592 1592 1591 1591
1544 1545 1547 1548 1550 1551 1552 1554 1555 1557 1558 1559 1560 1561 1562 1564 1565 1566 1567 1568 1569 1570 1570 1571 1572 1573 1574 1575 1576 1577 1579 1580 1581 1582 1583 1584 1585 1585 1586 1586 1587 1587 1588 1589 1589 1590 1590 1590 1591 1591 1591 1591 1591 1591 1591 1592 1592 1592 1592 1592 1591 1591
1543 1544 1546 1548 1549 1550 1551 1552 1554 1555 1557 1558 1559 1560 1562 1563 1564 1565 1567 1568 1569 1569 1570 1571 1572 1573 1574 1575 1576 1577 1579 1580 1581 1582 1583 1584 1585 1585 1586 1586 1586 1587 1588 1588 1589 1590 1590 1590 1591 1591 1591 1591 1591 1591 1591 1592 1592 1592 1592 1592 1591 1591
1542 1543 1545 1546 1548 1549 1550 1551 1553 1554 1556 1557 1559 1560 1561 1563 1564 1565 1566 1567 1568 1569 1570 1571 1572 1573 1574 1575 1576 1577 1578 1579 1581 1582 1583 1583 1584 1585 1585 1586 1586 1587 1587 1588 1589 1589 1590 1590 1591 1591 1591 1591 1591 1591 1591 1592 1591 1591 1592 1591 1591 1591
1541 1542 1544 1545 1547 1548 1549 1550 1552 1553 1555 1557 1558 1559 1560 1562 1563 1564 1565 1566 1567 1568 1569 1570 1571 1572 1574 1575 1576 1577 1578 1579 1580 1581 1582 1583 1584 1584 1585 1585 1586 1586 1587 1588 1588 1589 1589 1590 1590 1591 1591 1591 1591 1591 1591 1592 1591 1591 1591 1591 1591 1591
1540 1541 1543 1544 1546 1547 1548 1550 1551 1553 1554 1555 1557 1558 1559 1561 1562 1563 1564 1565 1566 1568 1569 1570 1571 1572 1573 1574 1575 1577 1577 1578 1579 1580 1581 1582 1583 1584 1584 1585 1585 1586 1587 1587 1588 1588 1589 1590 1590 1590 1590 1590 1590 1591 1591 1592 1591 1591 1591 1591 1591 1591
1539 1540 1541 1543 1544 1546 1547 1549 1550 1552 1553 1554 1556 1557 1558 1560 1561 1562 1563 1564 1566 1567 1568 1569 1570 1571 1573 1574 1575 1576 1577 1578 1579 1580 1581 1582 1583 1583 1584 1584 1584 1585 1586 1587 1587 1588 1589 1589 1589 1589 1590 1590 1590 1591 1591 1591 1592 1591 1591 1591 1591 1590
1537 1539 1540 1542 1543 1545 1546 1547 1549 1551 1552 1553 1554 1556 1557 1559 1560 1561 1562 1564 1565 1566 1568 1568 1570 1571 1572 1573 1575 1576 1577 1578 1578 1579 1580 1581 1582 1583 1583 1584 1584 1585 1586 1587 1587 1588 1588 1589 1589 1589 1589 1590 1590 1591 1591 1591 1592 1592 1592 1591 1591 1590
1537 1538 1539 1540 1542 1543 1545 1546 1548 1549 1550 1552 1553 1554 1556 1558 1559 1560 1562 1563 1564 1566 1567 1568 1569 1570 1571 1573 1574 1575 1576 1577 1578 1579 1579 1580 1581 1582 1583 1584 1584 1585 1586 1586 1587 1587 1588 1588 1588 1589 1589 1589 1590 1591 1591 1591 1592 1592 1592 1591 1590 1590
1536 1537 1538 1539 1540 1542 1543 1545 1546 1548 1549 1550 1552 1553 1554 1556 1558 1559 1561 1562 1564 1565 1566 1568 1569 1570 1571 1572 1573 1574 1575 1576 1577 1578 1579 1580 1580 1581 1582 1583 1584 1584 1585 1585 1586 1587 1587 1587 1588 1588 1589 1589 1590 1590 1591 1591 1591 1592 1591 1591 1590 1589
1534 1536 1537 1538 1539 1540 1542 1544 1545 1547 1548 1549 1550 1551 1553 1555 1556 1558 1560 1561 1563 1564 1566 1567 1568 1569 1570 1571 1572 1573 1574 1575 1576 1577 1578 1579 1580 1581 1582 1583 1583 1584 1584 1585 1585 1586 1586 1587 1587 1588 1588 1589 1589 1590 1591 1591 1591 1591 1591 1591 1590 1589
1533 1535 1536 1537 1538 1539 1541 1542 1544 1545 1547 1548 1549 1550 1552 1553 1555 1557 1559 1560 1562 1563 1565 1567 1568 1569 1570 1571 1572 1573 1574 1575 1576 1576 1577 1578 1579 1580 1581 1582 1583 1583 1583 1584 1584 1585 1586 1586 1587 1587 1588 1588 1589 1590 1590 1591 1591 1591 1591 1590 1589 1589
1531 1533 1534 1535 1537 1538 1539 1541 1543 1544 1545 1546 1547 1549 1550 1552 1554 1556 1557 1559 1561 1562 1564 1566 1567 1568 1569 1570 1571 1572 1573 1574 1575 1576 1576 1577 1578 1579 1580 1581 1582 1582 1582 1583 1584 1584 1585 1586 1586 1587 1587 1588 1589 1589 1590 1590 1590 1590 1590 1589 1589 1588
1529 1531 1533 1534 1535 1537 1538 1540 1542 1543 1544 1545 1546 1547 1549 1551 1553 1554 1556 1558 1559 1561 1563 1565 1566 1567 1568 1570 1570 1571 1572 1573 1574 1575 1575 1576 1577 1578 1579 1580 1581 1581 1581 1582 1583 1584 1584 1585 1586 1586 1587 1587 1588 1588 1589 1589 1589 1589 1589 1588 1588 1587
1528 1530 1531 1533 1534 1536 1537 1539 1541 1542 1543 1544 1545 1546 1548 1549 1551 1553 1555 1556 1558 1560 1562 1564 1565 1566 1567 1569 1569 1570 1571 1572 1573 1573 1574 1575 1576 1577 1578 1579 1580 1580 1580 1581 1582 1583 1583 1584 1585 1586 1586 1586 1587 1587 1588 1588 1588 1588 1588 1587 1587 1587
1526 1528 1530 1532 1533 1535 1536 1538 1539 1541 1542 1543 1544 1545 1547 1548 1550 1552 1553 1555 1557 1559 1561 1562 1564 1565 1566 1567 1568 1569 1570 1571 1571 1572 1573 1574 1575 1576 1577 1578 1579 1579 1580 1580 1581 1582 1582 1583 1584 1585 1585 1586 1586 1587 1587 1588 1588 1587 1587 1587 1587 1586
1525 1527 1529 1531 1532 1534 1535 1537 1538 1539 1540 1541 1543 1544 1545 1547 1549 1550 1552 1553 1555 1557 1559 1561 1563 1564 1565 1566 1567 1568 1569 1569 1570 1571 1572 1572 1573 1574 1576 1577 1578 1578 1579 1579 1580 1581 1582 1582 1583 1584 1585 1585 1586 1586 1586 1587 1587 1587 1587 1586 1586 1586
1524 1525 1527 1529 1531 1533 1534 1535 1536 1537 1538 1539 1541 1542 1544 1545 1547 1549 1550 1552 1554 1556 1558 1560 1561 1563 1564 1565 1566 1567 1567 1568 1569 1570 1571 1571 1572 1573 1574 1576 1576 1577 1578 1578 1579 1580 1581 1582 1582 1583 1584 1584 1585 1585 1585 1586 1586 1586 1586 1586 1585 1585
1522 1523 1525 1527 1529 1531 1532 1533 1534 1535 1536 1537 1539 1540 1542 1544 1546 1548 1549 1551 1552 1554 1556 1558 1560 1561 1562 1563 1564 1565 1566 1567 1568 1569 1569 1570 1571 1572 1573 1575 1575 1576 1577 1577 1578 1579 1580 1581 1581 1582 1583 1584 1584 1584 1585 1585 1585 1585 1585 1585 1585 1585
1520 1521 1523 1525 1526 1528 1529 1530 1532 1533 1534 1536 1537 1539 1540 1542 1544 1546 1548 1549 1551 1553 1554 1556 1558 1559 1561 1562 1563 1564 1565 1566 1567 1567 1568 1569 1570 1571 1572 1573 1574 1575 1576 1576 1577 1578 1579 1580 1581 1581 1582 1583 1583 1583 1584 1584 1584 1584 1584 1584 1584 1584
1518 1519 1521 1522 1524 1526 1527 1529 1530 1531 1533 1535 1536 1538 1539 1541 1543 1545 1547 1548 1549 1551 1553 1555 1556 1558 1559 1560 1561 1562 1563 1564 1565 1566 1567 1568 1569 1570 1571 1572 1573 1574 1574 1575 1576 1577 1578 1579 1580 1580 1581 1582 1582 1583 1583 1583 1583 1583 1583 1583 1584 1584
1515 1517 1519 1521 1522 1524 1526 1528 1530 1531 1533 1535 1536 1537 1539 1541 1542 1544 1545 1547 1548 1549 1551 1553 1554 1556 1557 1558 1560 1561 1562 1563 1564 1564 1565 1566 1567 1568 1569 1570 1571 1572 1573 1574 1575 1576 1577 1578 1578 1579 1580 1581 1581 1582 1582 1582 1582 1582 1582 1583 1583 1583
1513 1515 1517 1519 1521 1523 1526 1528 1529 1531 1533 1535 1536 1537 1538 1540 1541 1542 1544 1545 1546 1548 1549 1551 1552 1554 1555 1557 1558 1559 1560 1561 1562 1563 1564 1565 1566 1567 1568 1569 1570 1571 1571 1572 1573 1574 1575 1576 1577 1578 1579 1580 1580 1581 1581 1580 1580 1581 1581 1582 1582 1582
1510 1512 1515 1517 1519 1522 1525 1526 1527 1529 1531 1532 1534 1535 1536 1536 1538 1540 1541 1543 1544 1546 1548 1549 1551 1552 1553 1555 1556 1557 1558 1559 1560 1561 1562 1563 1564 1565 1567 1568 1568 1569 1570 1571 1572 1573 1573 1574 1575 1576 1577 1578 1578 1579 1579 1578 1579 1579 1580 1580 1581 1581
1507 1510 1512 1515 1517 1519 1522 1523 1524 1526 1527 1528 1530 1531 1532 1533 1535 1537 1539 1541 1543 1544 1546 1548 1549 1550 1551 1553 1554 1556 1556 1557 1558 1559 1560 1561 1562 1564 1565 1566 1567 1568 1569 1570 1570 1571 1572 1573 1574 1575 1575 1576 1576 1577 1577 1577 1578 1578 1578 1579 1579 1579
1504 1507 1510 1512 1514 1516 1518 1520 1522 1523 1524 1526 1527 1528 1530 1533 1535 1537 1538 1540 1541 1543 1544 1546 1547 1548 1550 1551 1553 1554 1555 1556 1557 1557 1558 1559 1561 1562 1563 1565 1566 1567 1568 1568 1569 1570 1570 1571 1572 1573 1573 1574 1574 1575 1575 1576 1577 1577 1577 1577 1577 1578
1501 1504 1507 1509 1511 1513 1515 1517 1519 1521 1522 1524 1526 1528 1530 1532 1534 1536 1537 1539 1540 1541 1542 1544 1545 1547 1548 1549 1551 1552 1553 1554 1555 1556 1557 1558 1559 1560 1562 1563 1564 1565 1565 1566 1568 1568 1569 1570 1570 1571 1571 1572 1573 1573 1574 1574 1575 1576 1576 1576 1576 1576
1498 1501 1504 1506 1508 1510 1512 1514 1516 1518 1520 1522 1524 1527 1529 1531 1533 1534 1536 1537 1538 1539 1540 1542 1543 1545 1546 1547 1549 1550 1551 1552 1553 1554 1555 1556 1557 1559 1560 1561 1562 1563 1564 1565 1566 1567 1567 1568 1569 1570 1570 1571 1571 1572 1572 1573 1573 1574 1574 1575 1575 1574
1493 1497 1500 1503 1505 1507 1509 1511 1513 1515 1517 1520 1522 1524 1527 1529 1531 1533 1534 1535 1535 1537 1538 1540 1541 1543 1544 1546 1547 1548 1550 1551 1552 1553 1554 1554 1555 1557 1558 1559 1560 1561 1562 1563 1564 1565 1566 1567 1567 1568 1569 1569 1570 1570 1571 1571 1572 1572 1573 1573 1574 1573
1489 1493 1496 1499 1502 1504 1506 1507 1509 1512 1515 1517 1519 1522 1524 1526 1528 1530 1531 1532 1533 1534 1536 1538 1539 1541 1542 1544 1545 1546 1548 1549 1550 1551 1552 1553 1554 1555 1556 1558 1559 1559 1560 1561 1562 1563 1564 1565 1566 1566 1567 1568 1568 1569 1569 1570 1570 1571 1571 1572 1572 1572
1485 1488 1492 1495 1498 1501 1502 1504 1506 1509 1512 1514 1516 1519 1521 1523 1526 1528 1529 1530 1531 1532 1534 1535 1537 1538 1540 1541 1543 1544 1546 1547 1548 1549 1550 1551 1552 1553 1555 1557 1558 1558 1559 1560 1561 1562 1562 1563 1564 1564 1565 1566 1566 1567 1568 1569 1569 1569 1570 1570 1571 1571
1481 1484 1487 1490 1494 1497 1499 1500 1502 1506 1509 1511 1513 1516 1518 1521 1524 1526 1527 1528 1529 1530 1531 1533 1534 1536 1538 1539 1541 1543 1544 1545 1547 1548 1549 1549 1550 1551 1553 1554 1556 1556 1557 1558 1558 1559 1560 1561 1562 1562 1563 1564 1564 1565 1566 1567 1567 1567 1568 1569 1569 1570
1477 1480 1483 1485 1489 1492 1495 1497 1500 1503 1505 1508 1510 1512 1514 1518 1521 1523 1524 1525 1527 1528 1529 1531 1533 1534 1536 1538 1539 1541 1542 1544 1545 1546 1547 1548 1549 1550 1551 1552 1553 1554 1555 1555 1556 1557 1558 1558 1559 1560 1561 1562 1562 1563 1564 1564 1565 1565 1566 1566 1567 1568
1472 1475 1478 1481 1484 1487 1490 1494 1497 1499 1502 1504 1507 1509 1511 1515 1518 1520 1521 1523 1525 1526 1528 1530 1531 1533 1534 1536 1537 1539 1540 1542 1543 1544 1545 1546 1547 1548 1549 1550 1551 1552 1552 1553 1554 1554 1555 1556 1557 1558 1558 1559 1560 1561 1561 1562 1563 1563 1564 1564 1565 1566
1468 1471 1473 1477 1479 1482 1486 1491 1494 1496 1499 1501 1503 1505 1508 1511 1514 1517 1519 1521 1523 1524 1526 1528 1529 1531 1533 1534 1535 1537 1538 1540 1541 1542 1543 1544 1545 1546 1547 1548 1549 1549 1550 1551 1551 1552 1553 1553 1554 1555 1556 1557 1558 1558 1559 1559 1560 1561 1561 1562 1563 1563
1464 1467 1470 1472 1474 1477 1482 1487 1490 1493 1495 1497 1500 1502 1504 1507 1511 1514 1517 1519 1521 1522 1524 1526 1528 1529 1531 1532 1533 1534 1536 1537 1538 1540 1541 1542 1543 1544 1545 1546 1546 1547 1548 1548 1549 1549 1550 1551 1552 1553 1554 1555 1555 1556 1556 1557 1558 1558 1559 1560 1560 1561
Wind_Speed
24 23 22 21 19 18 18 18 17 16 16 15 15 14 13 12 11 10 9 10 10 10 10 10 10 10 11 13 17 19 19 19 18 18 17 16 14 13 11 10 9 8 7 5 4 2 1 1 3 3 3 3 3 4 4 4 6 7 7 7 6 6
24 23 23 22 21 19 18 19 18 17 17 16 16 15 14 13 11 10 9 10 10 10 10 10 10 9 10 12 15 18 17 17 17 17 16 15 14 12 11 10 9 8 7 5 4 3 1 1 2 2 2 2 3 4 4 4 6 7 7 6 5 5
25 24 23 22 22 21 19 20 19 18 17 17 17 16 15 13 12 11 10 10 10 11 11 11 10 10 11 12 14 16 17 16 16 16 16 14 13 12 11 9 9 8 7 6 5 3 2 0 1 1 2 3 3 3 4 5 7 7 6 6 5 5
25 25 24 23 23 22 21 21 20 19 18 18 18 16 15 14 13 12 11 11 11 11 12 12 12 12 12 13 14 16 16 15 15 15 15 13 12 11 10 9 9 9 8 7 6 5 3 1 0 0 2 3 2 3 4 5 7 7 7 6 5 5
25 25 25 24 24 23 23 22 21 21 20 19 18 16 16 15 14 13 13 12 12 12 12 12 12 12 12 13 14 15 14 14 14 14 14 13 12 11 10 10 10 9 9 8 7 5 4 2 1 2 2 3 2 2 4 5 7 8 7 6 6 6
26 26 26 25 24 23 23 22 22 22 21 19 18 17 17 17 16 15 14 13 13 12 12 11 11 11 11 12 13 13 13 13 13 14 13 13 12 11 11 11 10 10 9 8 8 6 4 3 3 3 3 2 2 2 4 6 7 8 8 7 8 8
27 27 26 25 25 24 23 23 22 21 20 20 19 19 18 17 17 16 16 15 13 13 12 11 11 11 11 11 11 12 12 12 13 13 13 12 11 11 11 11 11 10 9 8 8 6 4 4 3 3 2 2 1 2 3 5 7 8 8 8 8 8
28 28 27 26 25 24 24 23 22 21 20 20 20 19 18 18 18 17 17 16 14 13 12 11 11 10 10 10 10 10 10 11 12 12 12 11 11 11 11 11 10 9 8 8 8 6 4 4 3 2 2 1 1 2 3 5 7 7 7 8 9 8
28 28 27 26 26 25 24 23 22 21 21 21 20 20 19 19 19 19 17 16 15 14 13 11 10 10 9 9 9 9 9 10 10 11 11 11 11 11 10 10 10 10 8 8 7 5 3 3 3 2 2 2 1 1 2 4 6 6 6 8 9 9
27 28 27 27 26 26 25 23 22 21 21 21 21 21 20 20 20 19 18 17 16 14 13 12 11 10 10 9 8 8 8 8 9 11 11 11 11 11 10 10 11 10 9 8 7 4 3 3 3 3 3 2 1 1 1 3 5 6 7 8 9 9
26 27 27 27 26 26 24 23 21 21 21 21 21 22 21 21 21 20 19 18 17 16 14 13 12 11 10 9 9 8 8 8 9 11 11 11 11 11 10 11 11 10 9 8 7 5 4 3 3 3 3 3 2 1 1 3 5 6 7 8 9 9
25 27 29 28 27 26 24 22 21 21 22 22 22 23 23 22 22 21 20 19 18 16 15 13 13 12 11 10 9 9 8 8 9 10 11 11 10 10 10 11 10 9 9 8 7 6 5 4 3 3 3 3 3 1 2 3 6 7 8 8 8 8
23 27 29 28 27 26 24 22 22 22 22 22 23 24 23 23 22 21 20 20 19 17 15 13 13 13 11 10 10 9 9 9 10 10 11 11 11 10 10 10 10 9 9 9 8 7 5 5 4 3 4 4 3 2 2 4 6 8 8 7 7 7
23 27 29 28 27 26 24 23 22 22 22 23 24 24 23 23 22 22 21 20 19 17 15 13 13 13 12 11 10 10 10 10 11 11 12 11 11 10 10 10 10 9 9 9 8 7 6 5 4 4 4 4 4 3 2 3 6 8 8 7 7 5
23 26 29 28 28 27 25 23 22 22 22 22 23 23 23 23 23 22 22 21 20 18 15 13 14 14 13 12 11 10 10 11 12 12 12 12 12 11 10 10 10 10 10 10 9 8 6 5 5 5 5 5 4 4 2 3 6 8 7 7 6 5
24 26 29 29 29 28 25 24 23 22 21 21 22 23 23 23 23 23 22 21 21 18 15 14 15 14 13 12 12 11 10 11 12 12 12 12 12 12 11 11 11 11 11 10 9 9 8 7 7 7 7 5 4 3 2 4 6 7 7 6 6 4
24 25 28 30 29 28 26 25 24 22 21 20 21 22 23 23 23 23 23 22 21 19 16 15 16 15 14 13 12 11 11 10 10 11 13 13 13 13 12 12 12 11 11 10 9 10 9 8 8 8 7 6 5 3 4 6 6 6 6 6 4 3
24 25 27 30 30 28 26 25 24 23 21 20 20 22 23 23 23 23 23 23 21 19 17 16 16 15 14 13 12 12 11 10 9 10 12 13 13 13 12 12 12 12 12 11 10 9 9 9 9 9 7 6 5 5 6 6 6 6 5 4 2 2
25 26 27 29 30 29 27 25 25 24 22 21 21 22 23 23 23 24 23 22 21 19 18 17 17 16 14 13 11 11 10 10 10 11 12 13 13 13 13 13 13 13 13 12 10 8 9 9 10 9 7 7 7 7 7 6 5 5 4 2 1 1
27 27 27 29 30 30 29 28 27 25 24 22 22 23 23 23 23 24 23 22 21 19 18 17 18 17 15 12 11 10 10 9 11 12 12 13 12 12 13 13 13 13 13 13 11 9 10 10 10 9 8 9 9 9 8 7 6 4 2 1 1 1
30 29 29 30 31 32 31 30 29 27 26 24 23 23 24 24 24 23 23 22 20 19 18 18 18 17 15 12 11 10 10 10 11 12 12 12 12 12 12 13 13 13 13 13 12 12 12 11 10 10 11 11 11 10 9 7 6 4 1 1 1 1
32 31 31 31 32 33 32 31 30 29 27 25 24 24 24 24 23 22 21 20 20 19 19 18 18 17 15 13 11 11 11 11 10 11 13 13 13 14 14 14 14 15 15 14 13 13 13 13 12 12 13 12 12 11 11 9 7 5 4 3 3 2
35 33 32 32 33 33 32 30 29 28 26 25 24 23 23 23 22 21 19 19 19 20 19 19 18 16 15 13 12 12 12 12 11 12 13 14 14 15 15 14 14 15 16 15 14 13 14 15 14 14 13 12 12 11 10 11 10 7 6 6 5 3
37 35 33 34 35 34 31 29 28 27 25 24 23 23 22 22 21 20 19 19 20 21 20 19 17 16 14 13 13 13 12 12 12 12 13 14 14 14 15 15 15 16 16 16 15 15 16 16 16 16 14 12 12 10 9 11 12 10 9 9 7 6
37 36 34 35 35 35 32 30 29 28 27 27 26 25 25 25 24 23 21 21 20 20 20 19 17 15 14 13 13 13 13 12 12 13 13 14 14 14 14 15 15 16 16 16 15 15 16 17 18 19 17 13 10 9 9 9 9 11 12 11 10 8
37 37 36 36 36 36 35 33 32 32 32 32 31 31 30 29 27 25 24 22 21 20 19 18 16 15 14 14 14 14 13 13 13 13 13 14 14 14 14 14 14 15 15 15 15 15 16 17 19 21 21 18 13 11 10 8 7 8 11 13 12 11
38 38 37 36 36 37 37 36 35 34 34 34 34 34 32 29 27 25 24 22 21 19 18 18 16 15 14 14 14 14 14 13 12 13 13 14 14 14 13 13 14 14 14 16 16 15 15 16 18 20 21 21 19 17 15 13 10 9 9 12 13 13
38 39 38 36 37 37 38 39 37 36 35 35 34 33 31 29 27 25 24 22 21 20 18 18 16 15 15 14 14 14 14 13 12 13 14 14 14 14 13 13 14 14 14 16 15 15 15 15 17 18 19 20 20 19 19 17 14 11 9 9 12 13
39 39 39 37 37 37 38 39 38 37 37 36 35 33 30 28 27 26 25 23 22 20 19 18 17 16 15 14 14 14 14 13 13 13 14 14 14 14 14 13 14 14 14 15 14 15 15 15 15 16 17 19 20 20 19 18 15 14 12 9 9 11
40 40 40 39 38 38 38 39 38 38 38 37 36 34 31 29 29 27 25 24 22 21 20 19 18 16 15 15 14 14 14 13 13 14 14 14 15 15 14 13 13 13 13 14 14 15 15 14 15 16 16 17 19 20 20 19 17 16 14 12 9 10
41 41 41 40 39 39 39 39 39 38 38 37 36 35 33 32 31 28 26 25 23 22 21 20 18 17 16 16 15 15 14 14 14 15 14 15 15 15 14 13 12 12 13 14 14 14 15 15 15 16 17 17 19 19 19 19 17 15 14 13 11 11
43 41 41 41 40 40 40 39 39 38 37 37 37 36 35 33 32 30 28 25 24 23 22 21 19 18 17 17 16 15 15 15 16 15 15 15 15 15 14 14 13 12 13 14 15 15 16 16 16 17 17 18 18 19 19 18 17 15 14 13 11 10
44 43 42 42 42 41 41 40 38 37 37 37 37 37 36 34 32 30 28 26 25 24 23 22 20 19 18 17 16 15 15 16 16 15 15 15 15 15 15 14 13 13 14 15 16 16 17 17 17 17 17 17 18 18 18 17 16 16 15 14 12 12
44 44 44 44 43 42 42 41 38 37 37 38 38 38 38 35 33 30 28 27 26 25 23 21 19 18 16 16 15 15 15 16 15 15 15 15 14 14 15 13 13 14 15 16 16 16 17 17 16 17 17 17 18 18 18 17 16 16 16 15 15 15
44 45 46 45 44 44 43 41 39 38 38 38 38 39 38 36 34 31 28 27 25 25 23 20 18 16 15 15 15 15 15 15 15 15 15 15 14 14 14 14 15 15 15 15 16 16 17 17 17 17 17 16 17 17 17 17 16 16 16 15 15 15
44 46 47 46 47 47 45 42 40 39 38 38 38 39 39 37 35 32 28 25 24 24 22 20 18 16 15 15 15 14 15 15 15 15 15 15 15 14 14 15 15 15 15 15 15 15 16 17 17 16 16 15 16 16 16 15 15 15 15 14 14 14
43 46 48 48 49 49 47 43 41 39 38 39 39 39 39 38 35 32 28 25 24 24 22 21 19 17 16 16 15 14 15 15 16 16 16 16 15 15 15 15 15 14 14 14 14 15 15 16 16 16 15 15 15 15 14 14 14 14 14 13 14 14
Wind_Direction
207 205 203 201 198 195 197 199 198 197 194 190 187 186 181 177 177 178 172 164 159 154 153 154 158 167 176 184 184 182 182 183 185 185 184 184 186 189 192 195 197 204 217 229 237 240 280 42 57 71 76 67 50 34 40 48 53 59 61 57 57 55
209 208 205 203 200 197 198 199 198 196 193 191 191 190 186 180 180 182 178 169 164 159 156 156 160 163 167 179 183 181 182 185 187 187 186 187 190 193 195 198 202 210 218 227 228 230 241 65 71 85 76 51 35 25 37 50 57 63 63 60 55 49
209 211 208 205 203 201 201 201 199 195 193 193 194 194 188 182 183 185 182 176 170 165 160 158 161 163 164 171 176 179 183 186 188 188 188 191 193 196 199 200 207 214 218 222 222 224 230 144 101 96 57 30 25 19 34 50 60 65 62 59 53 42
210 213 211 206 206 204 203 205 201 197 195 195 197 196 188 185 187 187 186 183 177 171 167 166 167 169 168 169 173 179 184 187 190 191 191 193 196 200 201 203 210 216 216 218 220 223 231 227 196 95 11 11 13 21 42 51 57 64 63 59 49 33
211 214 213 209 208 206 205 206 205 203 200 198 198 196 190 189 191 191 192 189 183 178 176 175 175 176 176 174 175 180 184 188 192 193 193 195 198 201 201 204 211 215 215 216 221 226 233 242 259 291 334 352 3 31 49 51 49 55 62 60 42 25
213 215 214 212 211 209 208 208 207 207 203 200 199 196 193 191 193 195 196 195 189 186 184 181 180 181 182 181 179 180 183 187 191 193 195 197 200 202 203 206 211 217 217 216 222 226 233 248 264 290 321 340 9 38 47 51 48 50 55 49 33 17
215 216 215 213 213 212 211 210 209 209 205 202 200 199 196 193 195 198 198 198 195 192 187 184 184 184 186 184 182 183 185 190 194 196 199 201 201 202 204 206 212 217 216 217 221 224 235 249 260 279 309 324 356 28 40 49 45 47 46 34 23 11
216 216 215 213 213 213 213 213 210 208 206 204 203 202 199 195 198 199 200 200 198 194 187 184 185 188 189 185 183 186 190 197 200 201 202 202 202 204 205 206 209 211 211 213 218 223 236 247 250 255 277 288 312 10 35 46 40 41 37 23 15 7
216 216 215 213 213 214 214 214 211 207 206 205 204 203 201 198 201 202 202 201 199 194 186 183 185 189 189 183 182 185 193 201 203 203 202 202 205 204 202 202 203 204 206 210 217 224 231 240 236 230 245 259 292 3 38 40 33 31 24 14 7 359
217 215 214 213 213 213 215 214 210 208 207 206 205 204 203 201 203 205 204 203 200 193 186 184 187 189 186 181 180 182 191 199 202 203 201 202 203 200 196 198 202 202 206 215 221 217 213 229 227 227 239 241 267 327 33 25 21 17 10 3 358 355
221 216 214 213 214 214 214 213 209 208 208 206 205 205 205 204 205 205 205 205 201 193 188 188 191 192 188 185 184 186 191 195 198 200 199 200 198 197 196 199 202 202 209 220 220 207 205 224 226 229 238 240 254 266 343 3 7 2 356 350 350 352
226 217 214 213 214 214 213 211 209 209 209 207 205 206 207 206 206 205 206 206 202 195 191 192 195 196 193 191 191 194 196 197 198 197 197 198 201 203 203 204 207 207 211 217 215 207 207 217 223 229 230 235 246 258 303 346 358 346 336 337 347 352
228 218 213 212 213 213 210 208 209 209 210 208 206 206 207 207 206 206 207 207 204 197 193 195 198 200 199 196 197 200 202 203 203 202 201 204 209 212 211 211 213 213 213 216 214 209 212 216 215 221 221 229 240 255 294 339 346 327 321 333 348 353
227 219 213 212 213 213 209 206 208 210 211 208 207 206 206 206 206 206 207 208 206 200 197 198 201 204 203 200 202 206 208 210 211 210 211 214 217 218 217 217 217 217 217 217 214 210 214 214 213 219 219 221 229 241 277 328 325 310 316 338 349 356
225 221 214 212 212 212 208 205 206 208 210 208 207 206 206 206 206 206 207 208 206 203 201 200 203 206 204 202 205 209 213 216 217 218 219 220 220 220 220 220 219 219 220 218 213 208 205 203 211 219 217 218 223 233 268 309 303 302 320 340 348 358
225 223 216 213 212 211 207 205 206 207 209 209 208 207 207 207 207 206 206 207 207 204 202 200 203 208 207 208 209 210 212 215 219 222 225 224 220 220 221 222 221 219 223 222 212 206 203 203 211 215 215 222 228 242 285 290 292 305 324 338 346 353
226 225 220 214 212 210 207 205 206 207 210 211 212 211 208 208 207 207 206 206 206 203 201 201 205 210 210 212 214 213 211 213 220 224 228 227 221 220 222 223 221 218 220 222 215 209 207 205 208 213 215 218 230 259 284 283 288 306 321 334 347 351
227 226 222 217 213 210 207 205 206 207 211 213 214 213 210 208 207 207 207 206 206 204 201 202 207 211 212 213 215 215 215 217 224 228 228 227 223 221 221 221 220 218 218 218 217 215 213 208 204 212 217 214 227 253 264 271 283 303 319 341 360 2
227 225 223 220 214 211 209 206 207 207 210 212 211 211 208 208 208 207 207 207 207 206 203 205 210 213 213 215 217 218 220 223 228 231 229 226 223 221 220 219 217 218 220 218 216 215 215 209 201 210 227 226 226 238 249 262 278 296 313 358 31 26
225 225 222 220 214 211 209 207 207 207 208 209 208 208 207 207 207 207 208 208 208 207 206 208 212 214 215 216 218 221 223 224 227 229 229 228 225 223 221 219 218 219 222 220 215 208 209 210 206 210 222 224 226 233 243 258 271 280 290 99 82 74
223 223 222 220 215 211 209 207 207 207 207 208 207 207 207 207 207 208 208 208 208 207 206 208 212 214 215 216 220 224 226 226 226 226 227 227 223 222 221 219 219 219 222 224 219 209 206 212 216 215 211 211 220 231 239 250 258 252 229 158 157 117
224 223 223 222 219 214 211 209 209 209 208 208 209 209 209 209 207 207 206 206 207 206 206 208 212 214 214 217 223 227 229 229 226 225 225 222 220 221 221 220 219 218 219 222 224 220 215 212 218 225 222 215 217 227 240 247 242 231 221 215 211 191
227 224 223 223 222 219 216 214 214 213 211 210 212 212 211 211 209 207 205 204 205 205 206 208 211 213 213 217 224 228 230 229 226 226 225 222 221 223 224 223 221 219 219 217 217 221 220 217 222 226 221 217 221 224 234 241 234 227 226 224 226 220
229 225 224 224 224 223 220 218 218 216 215 214 215 214 212 210 209 208 205 205 206 206 206 209 212 213 214 218 224 228 230 230 229 228 228 225 224 226 227 226 222 220 222 220 216 215 218 222 228 227 216 214 222 217 223 240 238 232 229 226 228 227
229 227 224 225 225 224 221 219 218 216 215 216 216 215 213 210 207 206 207 208 208 208 207 211 213 212 215 219 223 227 230 232 232 231 228 225 225 226 226 227 225 221 223 226 224 222 223 226 230 231 228 222 216 208 221 244 240 233 235 229 228 230
227 229 226 226 226 224 221 218 218 216 214 214 215 215 215 213 211 208 208 209 209 209 210 214 215 215 218 222 225 228 230 234 236 234 229 224 221 221 221 224 225 224 226 229 231 230 231 233 231 231 234 234 232 230 238 246 229 224 237 234 230 231
225 230 227 226 226 225 222 220 220 219 219 218 217 217 217 216 216 214 213 211 210 211 213 217 219 219 222 226 229 230 232 236 238 235 228 222 218 218 219 221 222 224 228 231 232 235 237 239 236 234 238 242 245 247 251 255 245 231 231 232 233 232
223 229 229 226 226 226 225 223 222 222 223 223 223 222 219 218 217 218 217 214 213 213 216 220 221 223 225 228 232 233 235 237 238 234 227 222 218 217 219 221 221 222 228 231 234 240 244 244 243 245 247 247 249 251 254 258 255 248 234 227 234 236
222 228 229 226 227 227 227 227 226 225 225 225 227 226 224 222 218 218 217 214 214 215 218 222 224 225 226 228 232 234 236 239 238 232 226 223 219 217 219 220 222 224 228 233 238 243 245 248 251 253 254 253 253 253 254 255 253 250 244 234 233 238
223 228 229 226 227 228 228 228 228 227 228 227 227 228 227 226 223 219 216 213 214 215 219 223 225 226 227 229 232 234 236 237 234 228 224 224 223 220 220 222 225 228 232 237 242 245 247 251 253 255 257 256 255 253 252 251 252 253 253 251 243 243
223 227 230 227 226 228 228 229 229 229 230 230 229 229 228 227 226 222 218 215 214 216 219 223 225 227 228 230 232 234 236 234 229 225 222 222 224 222 222 225 229 229 232 240 245 248 250 252 251 251 252 251 251 252 252 255 259 260 260 261 255 251
225 227 230 228 226 227 228 229 231 230 232 233 233 232 232 230 228 224 221 218 216 217 219 221 224 227 228 231 232 233 234 232 227 225 223 223 224 224 224 226 230 233 236 243 247 248 248 249 248 248 249 248 247 248 250 254 258 261 263 264 259 251
226 227 230 230 227 227 227 228 230 231 233 235 235 235 235 234 232 229 225 222 219 218 218 220 223 226 228 231 233 234 234 233 231 228 228 228 227 231 233 229 231 241 246 249 250 248 248 249 249 249 250 251 248 246 249 251 254 259 261 260 253 243
227 227 229 231 228 226 227 227 229 232 234 236 237 237 237 236 235 234 231 227 224 221 220 221 224 227 230 234 236 237 236 235 233 230 230 231 232 237 242 241 241 249 252 252 250 246 246 247 247 248 248 246 245 246 249 252 254 257 258 259 254 245
229 227 228 231 230 227 226 226 227 231 235 237 239 239 238 238 237 237 236 233 229 226 224 225 227 230 234 237 238 238 237 235 232 231 231 233 235 238 244 248 250 254 254 252 249 244 242 242 242 244 244 241 242 245 247 250 252 254 256 258 253 245
233 231 229 230 231 228 225 224 225 229 234 237 239 240 239 238 238 238 238 237 234 229 226 226 229 231 234 236 237 236 235 235 234 234 233 235 238 241 246 251 253 254 253 251 250 245 242 241 240 240 239 239 241 243 245 246 247 251 253 248 240 234
233 231 231 230 231 229 224 222 223 227 232 235 237 239 239 238 238 238 238 237 235 231 227 226 228 229 231 232 232 231 232 234 235 235 236 237 239 244 248 250 251 252 254 253 250 244 240 237 235 233 234 235 237 239 240 240 243 245 243 235 228 226